This is the latest recevied weather packets stored in our database for station/object K7NDG. If no packets are shown the sender has not sent any weather packets the latest 10 day(s).
| Time | Temp. | Humidity | Pressure | Rain* | Wind** | Luminosity | Snow |
|---|---|---|---|---|---|---|---|
| 1777765498 | 26.11° C | 53% | 1012.9 hPa | 0 mm | - | 158 W/m² | - |
| 1777765195 | 26.67° C | 52% | 1012.9 hPa | 0 mm | - | 289 W/m² | - |
| 1777764890 | 26.67° C | 50% | 1012.8 hPa | 0 mm | - | 448 W/m² | - |
| 1777764587 | 26.67° C | 52% | 1012.9 hPa | 0 mm | - | 505 W/m² | - |
| 1777764284 | 27.22° C | 50% | 1013 hPa | 0 mm | - | 528 W/m² | - |
| 1777763981 | 27.22° C | 50% | 1013 hPa | 0 mm | - | 568 W/m² | - |
| 1777763678 | 27.22° C | 49% | 1013.3 hPa | 0 mm | - | 585 W/m² | - |
| 1777763376 | 27.22° C | 49% | 1013.3 hPa | 0 mm | - | 533 W/m² | - |
| 1777763074 | 27.22° C | 50% | 1013.5 hPa | 0 mm | - | 630 W/m² | - |
| 1777762772 | 27.22° C | 48% | 1013.2 hPa | 0 mm | - | 625 W/m² | - |
| 1777762467 | 27.22° C | 48% | 1013.5 hPa | 0 mm | - | 662 W/m² | - |
| 1777762165 | 26.67° C | 49% | 1013.6 hPa | 0 mm | - | 651 W/m² | - |
| 1777761860 | 26.67° C | 48% | 1013.6 hPa | 0 mm | - | 636 W/m² | - |
| 1777761557 | 26.67° C | 51% | 1013.6 hPa | 0 mm | - | 635 W/m² | - |
| 1777761255 | 26.67° C | 51% | 1013.9 hPa | 0 mm | - | 680 W/m² | - |
| 1777760954 | 26.67° C | 51% | 1014.1 hPa | 0 mm | - | 679 W/m² | - |
| 1777760650 | 26.67° C | 49% | 1014 hPa | 0 mm | - | 656 W/m² | - |
| 1777760345 | 26.11° C | 51% | 1014.2 hPa | 0 mm | - | 675 W/m² | - |
| 1777760042 | 26.11° C | 53% | 1014.2 hPa | 0 mm | - | 689 W/m² | - |
| 1777759739 | 25.56° C | 54% | 1014.2 hPa | 0 mm | - | 673 W/m² | - |
| 1777759435 | 25.56° C | 52% | 1014.3 hPa | 0 mm | - | 679 W/m² | - |
| 1777759132 | 25.56° C | 54% | 1014.3 hPa | 0 mm | - | 650 W/m² | - |
| 1777758830 | 25° C | 54% | 1014.7 hPa | 0 mm | - | 681 W/m² | - |
| 1777758526 | 25° C | 53% | 1014.6 hPa | 0 mm | - | 670 W/m² | - |
| 1777758223 | 25° C | 53% | 1014.4 hPa | 0 mm | - | 668 W/m² | - |
* Rain latest hour (hover to see other rain measurements)
** Current wind speed in m/s (hover to see current wind gust speed)